Location: Noordwijk
(52.2400°N, 4.4500°E)
Time: 07:23:25
(UTC+00:00)

CAS-4B - Visible Passes

Search period start: 07 December 2022 00:00
Search period end: 17 December 2022 00:00
Orbit: 518 x 534 km, 43.0° (Epoch: 06 December)

Date Brightness Start Highest point End Pass type
(mag) Time Alt. Az. Time Alt. Az. Time Alt. Az.
07 Dec ? 04:39:46 10° SSE 04:40:10 10° SSE 04:40:34 10° SSE visible
07 Dec ? 06:16:03 10° SW 06:19:05 20° S 06:22:08 10° ESE visible
08 Dec ? 04:25:45 11° SSE 04:26:11 11° SSE 04:27:33 10° SE visible
08 Dec ? 06:02:04 10° SW 06:05:09 21° S 06:08:16 10° ESE visible
09 Dec ? 04:12:51 12° SE 04:12:51 12° SE 04:14:02 10° SE visible
09 Dec ? 05:48:05 10° SW 05:51:13 22° S 05:54:22 10° ESE visible
10 Dec ? 03:59:51 12° SE 03:59:51 12° SE 04:00:23 10° SE visible
10 Dec ? 05:34:58 14° SW 05:37:16 22° S 05:40:26 10° SE visible
11 Dec ? 05:21:54 19° SSW 05:23:18 22° S 05:26:30 10° SE visible
11 Dec ? 06:59:44 10° WSW 07:02:25 17° SSW 07:05:07 10° SSE visible
12 Dec ? 05:08:45 22° SSW 05:09:21 22° S 05:12:33 10° SE visible
12 Dec ? 06:45:56 10° WSW 06:48:26 16° SSW 06:50:56 10° SSE visible
13 Dec ? 04:55:35 22° S 04:55:35 22° S 04:58:33 10° SE visible
13 Dec ? 06:32:09 10° SW 06:34:26 15° SSW 06:36:43 10° SSE visible
14 Dec ? 04:42:23 20° SSE 04:42:23 20° SSE 04:44:33 10° SE visible
14 Dec ? 06:18:25 10° SW 06:20:25 13° SSW 06:22:25 10° S visible
15 Dec ? 04:29:11 16° SSE 04:29:11 16° SSE 04:30:30 10° SE visible
15 Dec ? 06:04:48 10° SW 06:06:24 12° SSW 06:07:59 10° S visible
16 Dec ? 04:16:00 12° SE 04:16:00 12° SE 04:16:27 10° SE visible
16 Dec ? 05:51:24 10° SW 05:52:21 11° SSW 05:53:19 10° SSW visible
